Погода в Цзеши

Китай     22°53′45″N   115°53′01″E
темп.,
°C
ветер,
м/с
пор.,
м/с
влажн.,
%
обл.,
%
осадки,
мм/ч
давл.,
гПа
погр.,
м
18 апреля, вс
вс1823:00+22всв41156100 0.0 1018689
02:00+23св41148100 0.0 1016771
05:00+22всв474890 0.0 1016382
08:00+23в694395 0.0 1017790
11:00+26в910405 0.0 10171217
14:00+26в89419 0.0 10141154
17:00+23в894979 0.0 1013877
20:00+20всв71064100 0.0 1016773
19 апреля, пн
пн1923:00+19всв61065100 0.0 1018955
02:00+18всв61062100 0.0 1016893
05:00+18всв595896 0.0 1015719
08:00+20всв565454 0.0 1016692
11:00+25всв343960 0.0 10151208
14:00+27св433696 0.0 10121382
17:00+24в554727 0.0 1012866
20:00+20в685895 0.0 1015426
20 апреля, вт
вт2023:00+19всв476861 0.0 1016400
02:00+18всв357059 0.0 1014312
05:00+18всв366770 0.0 1014248
08:00+20всв465799 0.0 1016571
11:00+23всв554418 0.0 1015894
14:00+28вюв44316 0.0 10121490
17:00+25вюв874735 0.0 1011670
20:00+20всв59755 0.0 1014485
21 апреля, ср
ср2123:00+19всв5107934 0.0 1016764
02:00+19всв37790 0.0 1014391
05:00+18ссв23780 0.0 101466
08:00+22всв34580 0.0 1015598
11:00+28в12360 0.0 10141292
14:00+30юв65370 0.0 10101156
17:00+25вюв77520 0.0 1010762
20:00+22в58680 0.0 1013559
22 апреля, чт
чт2223:00+20всв35740 0.0 1014205
02:00+19св22811 0.0 101282
05:00+18ссв11820 0.0 101121
08:00+23всв23600 0.0 1012511
11:00+28ююв33430 0.0 10111191
14:00+30ююз75420 0.0 10071268
17:00+26ююз55550 0.0 1007717
20:00+22ю23760 0.0 1009118